STARLINK-31964, 59895

Orbit data source: Space-Track

STARLINK-31964, 59895 is a payload satellite owned by SpaceX/Seattle (US) in LEO that was launched on Tue, 28 May 2024 UTC via an FALCON 9 launch vehicle from the Air Force Eastern Test Range (AFETR). Payload-class satellites include a variety of spacecraft equipped with specific instruments for various scientific and technological missions. These include communications satellites like Starlink; space stations such as the ISS; scientific satellites like the Hubble; Earth observation satellites from companies like Planet Labs, Umbra, and HawkEye 360; GPS; miniature CubeSats for education and research; and military/defense satellites.

Loading next visibility...
Identifier
59895, 2024-100L
Orbit
LEO
Country
Flag of USUS
Related business
Manufacturer
SpaceX/Seattle
Mission
Operational Commercial Communications
Bus & Motor
STARLINK V2M, Unknown motor
Mass
730 kg wet, ~700 kg dry
Launch date (UTC)
2024-05-28 (2 years ago)
Launch vehicle
FALCON 9
Launch site
Air Force Eastern Test Range (AFETR)
Object type
Payload
Rocket body
Debris
Shape & HBR
Box + 2 Pan, 17.7 m
Radar Cross Section
33.884 m², Large (>1 m²)

Expand to show TLE details & history
Last TLE update: 1 day ago

TLE from 1 day ago
0 STARLINK-31964
1 59895U 24100L   26125.46347698  .00000596  00000-0  31170-4 0  9992
2 59895  43.0004 164.4259 0001218 279.7613  80.3101 15.27579323109790
Epoch: 2026-05-05T11:07Z
TLE epoch observation values (Epoch: 2026-05-05T11:07:24.411Z)
Latitude
-0°
Longitude
134.23622°
Altitude
482.686 km
Speed
7.626 km/s
True Right ascension
10h 57m 42s
True Declination
0° 00' 00"
Sunlit
Object was in full shadow at epoch
Visualization orbit readout
Latitude
Unknown
Longitude
Unknown
Altitude
Unknown
Speed
Unknown
Apparent Right ascension
Unknown
Apparent Declination
Unknown
Sunlit
N/A
Visualization observer readout
Local Sidereal Time
23:15:12
Azimuth
Unknown
Elevation
Unknown
Doppler factor
Unknown
Orbital elements
Apogee altitude
485.832 km
Perigee altitude
484.16 km
Semi-major axis
6,863.133 km
Eccentricity
0.00012
Inclination
43.0004°
RAAN
164.4259°
Arg. of periapsis
279.7613°
True anomaly
80.32386°
Mean anomaly
80.3101°
Eccentric anomaly
80.31698°
Mean motion
3.81733 °/min
Orbital period
94.31 mins
BSTAR
0.00003117
Loading maneuver chart data...
Computing Atmospheric mass density...
Loading historical data...
Loading historical data...
Loading historical data...
Loading historical data...
Loading historical data...
Loading historical data...
Loading historical data...

Documentation

Showing up to 5 results
|